Location: Cadeilhan
(42.8161°N, 0.3161°E)
Time: 14:18:17
(UTC+00:00)

ATLAS CENTAUR R/B - Pass Details

Date: 18 February 2020
Orbit: 466 x 681 km, 64.7° (Epoch: 26 March)

Event Time Altitude Azimuth Distance (km) Brightness Sun altitude
Exits shadow 05:22:26 19° 321° (NW) 1,507 3.2 -17.2°
Drops below altitude 10° 05:25:30 10° 5° (N) 1,970 4.2 -16.6°
Sets 05:28:17 0° 23° (NNE) 2,832 5.3 -16.1°
